This is the latest recevied weather packets stored in our database for station/object DL6JOE-10. If no packets are shown the sender has not sent any weather packets the latest 10 day(s).
| Time | Temp. | Humidity | Pressure | Rain* | Wind** | Luminosity | Snow |
|---|---|---|---|---|---|---|---|
| 1777087210 | 10° C | 38% | 964.5 hPa | - | - | - | - |
| 1777086310 | 10° C | 37% | 964.5 hPa | - | - | - | - |
| 1777085410 | 10.56° C | 37% | 964.6 hPa | - | - | - | - |
| 1777084510 | 10.56° C | 37% | 964.5 hPa | - | - | - | - |
| 1777083610 | 11.11° C | 36% | 964.6 hPa | - | - | - | - |
| 1777082710 | 11.11° C | 36% | 964.6 hPa | - | - | - | - |
| 1777081809 | 11.11° C | 35% | 964.6 hPa | - | - | - | - |
| 1777080909 | 11.67° C | 35% | 964.5 hPa | - | - | - | - |
| 1777080009 | 11.67° C | 35% | 964.5 hPa | - | - | - | - |
| 1777079109 | 12.22° C | 34% | 964.6 hPa | - | - | - | - |
| 1777078209 | 12.22° C | 34% | 964.7 hPa | - | - | - | - |
| 1777077309 | 12.22° C | 34% | 964.7 hPa | - | - | - | - |
| 1777076409 | 12.78° C | 33% | 964.8 hPa | - | - | - | - |
| 1777075509 | 13.33° C | 33% | 965 hPa | - | - | - | - |
| 1777074609 | 13.33° C | 33% | 965 hPa | - | - | - | - |
| 1777073709 | 13.33° C | 32% | 965 hPa | - | - | - | - |
| 1777072809 | 13.89° C | 32% | 965 hPa | - | - | - | - |
| 1777071909 | 13.89° C | 32% | 965 hPa | - | - | - | - |
| 1777071008 | 14.44° C | 31% | 965.1 hPa | - | - | - | - |
| 1777070108 | 15° C | 30% | 965.3 hPa | - | - | - | - |
| 1777069208 | 15° C | 30% | 965.3 hPa | - | - | - | - |
| 1777068308 | 15.56° C | 30% | 965.2 hPa | - | - | - | - |
| 1777067408 | 15.56° C | 29% | 965.3 hPa | - | - | - | - |
| 1777066508 | 16.11° C | 29% | 965.3 hPa | - | - | - | - |
| 1777065608 | 16.67° C | 28% | 965.3 hPa | - | - | - | - |
* Rain since midnight (hover to see other rain measurements)
** Current wind speed in m/s (hover to see current wind gust speed)